This is the latest recevied weather packets stored in our database for station/object AD8PA-13. If no packets are shown the sender has not sent any weather packets the latest 1 day(s).
| Time | Temp. | Humidity | Pressure | Rain* | Wind** | Luminosity | Snow |
|---|---|---|---|---|---|---|---|
| 1778053034 | 8.33° C | 58% | 1009.5 hPa | 0 mm | - | - | - |
| 1778052131 | 8.33° C | 59% | 1009.2 hPa | 0 mm | - | - | - |
| 1778051229 | 8.33° C | 58% | 1009.2 hPa | 0 mm | - | - | - |
| 1778050326 | 8.89° C | 58% | 1009.3 hPa | 0 mm | - | - | - |
| 1778047618 | 8.89° C | 57% | 1009.6 hPa | 0 mm | - | - | - |
| 1778046715 | 8.89° C | 57% | 1009.6 hPa | 0 mm | - | - | - |
| 1778044009 | 8.89° C | 58% | 1009.6 hPa | 0 mm | - | - | - |
| 1778042202 | 9.44° C | 55% | 1009.2 hPa | 0 mm | - | - | - |
| 1778041303 | 9.44° C | 56% | 1009.4 hPa | 0 mm | - | - | - |
| 1778040401 | 9.44° C | 57% | 1009.3 hPa | 0 mm | - | - | - |
| 1778039497 | 9.44° C | 58% | 1009.2 hPa | 0 mm | - | - | - |
| 1778038594 | 9.44° C | 55% | 1009.4 hPa | 0 mm | - | - | - |
| 1778037691 | 9.44° C | 54% | 1009.4 hPa | 0 mm | - | - | - |
| 1778035885 | 10° C | 53% | 1009.4 hPa | 0 mm | - | - | - |
| 1778034981 | 9.44° C | 53% | 1009.7 hPa | 0 mm | - | - | - |
| 1778034078 | 10° C | 52% | 1009.5 hPa | 0 mm | - | - | - |
| 1778033176 | 10° C | 53% | 1009.6 hPa | 0 mm | - | - | - |
| 1778031371 | 10° C | 49% | 1009.1 hPa | 0 mm | - | - | - |
| 1778030466 | 10° C | 48% | 1009 hPa | 0 mm | - | - | - |
| 1778028661 | 10.56° C | 46% | 1009 hPa | 0 mm | - | - | - |
| 1778027757 | 11.11° C | 47% | 1009.1 hPa | 0 mm | - | - | - |
| 1778025953 | 11.11° C | 54% | 1008.6 hPa | 0 mm | - | - | - |
* Rain latest hour (hover to see other rain measurements)
** Current wind speed in m/s (hover to see current wind gust speed)